Back to catalog

STARLINK-2720

AliveCommunicationsVLEO
NORAD 48653·PAYLOAD·🇺🇸 United States

Launched May 26, 2021 from Cape Canaveral Space Force Station

Loading…

Next Passes (next 24 hours)

TLE

FreshSource: CelesTrak SupGP

Epoch: Sep 14, 2026, 20:31 UTC

1 48653C 21044R   26257.85534722 -.00027750  00000+0 -89225-3 0  2573
2 48653  53.1603 313.5413 0000981  74.4324 137.0519 15.31720952    10

Track STARLINK-2720 in real time with AllMySat

Download on the App Store